This is the latest recevied weather packets stored in our database for station/object KJ5IIV. If no packets are shown the sender has not sent any weather packets the latest 10 day(s).
| Time | Temp. | Humidity | Pressure | Rain* | Wind** | Luminosity | Snow |
|---|---|---|---|---|---|---|---|
| 1778110227 | 14.44° C | 89% | 1013.6 hPa | 0 mm | - | 30 W/m² | - |
| 1778109923 | 15° C | 90% | 1013.4 hPa | 0 mm | - | 30 W/m² | - |
| 1778109619 | 15° C | 90% | 1013.5 hPa | 0 mm | - | 32 W/m² | - |
| 1778109317 | 15° C | 91% | 1013.5 hPa | 0 mm | - | 20 W/m² | - |
| 1778109015 | 15° C | 91% | 1013.6 hPa | 0 mm | - | 15 W/m² | - |
| 1778108710 | 15° C | 91% | 1013.3 hPa | 0 mm | - | 12 W/m² | - |
| 1778108408 | 15° C | 91% | 1013.2 hPa | 0 mm | - | 25 W/m² | - |
| 1778108105 | 15° C | 91% | 1013 hPa | 0 mm | - | 32 W/m² | - |
| 1778107801 | 15° C | 92% | 1013.1 hPa | 0 mm | - | 25 W/m² | - |
| 1778107498 | 15° C | 92% | 1012.7 hPa | 0 mm | - | 26 W/m² | - |
| 1778107194 | 15° C | 92% | 1012.5 hPa | 0 mm | - | 34 W/m² | - |
| 1778106890 | 15° C | 93% | 1012.4 hPa | 0 mm | - | 58 W/m² | - |
| 1778106588 | 15° C | 93% | 1012.7 hPa | 0 mm | - | 56 W/m² | - |
| 1778106284 | 15° C | 94% | 1012.7 hPa | 0 mm | - | 56 W/m² | - |
| 1778105981 | 15° C | 94% | 1012.4 hPa | 0 mm | - | 82 W/m² | - |
| 1778105678 | 15° C | 94% | 1012.3 hPa | 0 mm | - | 76 W/m² | - |
| 1778105376 | 15° C | 94% | 1012.5 hPa | 0 mm | - | 93 W/m² | - |
| 1778105071 | 15° C | 94% | 1012.2 hPa | 0 mm | - | 52 W/m² | - |
| 1778104768 | 15° C | 94% | 1012.4 hPa | 0 mm | - | 62 W/m² | - |
| 1778104464 | 15.56° C | 94% | 1012.4 hPa | 0 mm | - | 49 W/m² | - |
| 1778104160 | 15.56° C | 94% | 1012.6 hPa | 0 mm | - | 44 W/m² | - |
| 1778103857 | 15.56° C | 94% | 1012.5 hPa | 0 mm | - | 74 W/m² | - |
| 1778103555 | 15.56° C | 93% | 1012.6 hPa | 0 mm | - | 86 W/m² | - |
| 1778103252 | 15.56° C | 93% | 1012.5 hPa | 0 mm | - | 116 W/m² | - |
| 1778102950 | 15.56° C | 92% | 1012.8 hPa | 0 mm | - | 93 W/m² | - |
* Rain latest hour (hover to see other rain measurements)
** Current wind speed in m/s (hover to see current wind gust speed)